FW1385 Weather Reports


Display with metric or nautical units.
time (UTC)temp
F
wind
direction
speed
MPH
gust
MPH
rain 1hr
in
rain 24hr
in
rain mn
in
humidity
%
barometer
mb
20260504234704 74 164 1.0 3.0 0.00 0.00 0.00 51 1008.4
20260504234604 74 161 1.0 3.0 0.00 0.00 0.00 52 1008.5
20260504234505 74 155 1.0 3.0 0.00 0.00 0.00 52 1008.5
20260504234403 74 145 1.0 3.0 0.00 0.00 0.00 50 1008.5
20260504234303 74 138 1.0 3.0 0.00 0.00 0.00 50 1008.5
20260504234203 75 139 1.0 3.0 0.00 0.00 0.00 50 1008.5
20260504234104 75 141 1.0 4.0 0.00 0.00 0.00 50 1008.4
20260504234003 75 134 1.0 4.0 0.00 0.00 0.00 50 1008.4
20260504233904 75 133 1.0 4.0 0.00 0.00 0.00 50 1008.5
20260504233803 75 133 1.0 4.0 0.00 0.00 0.00 49 1008.4
20260504233703 75 134 1.0 4.0 0.00 0.00 0.00 48 1008.4
20260504233604 75 135 1.0 4.0 0.00 0.00 0.00 49 1008.5
20260504233504 75 135 1.0 4.0 0.00 0.00 0.00 50 1008.5
20260504233404 75 135 1.0 4.0 0.00 0.00 0.00 49 1008.5
20260504233303 75 137 1.0 4.0 0.00 0.00 0.00 51 1008.4
20260504233203 76 135 1.0 4.0 0.00 0.00 0.00 48 1008.4
20260504233003 76 136 1.0 5.0 0.00 0.00 0.00 48 1008.5
20260504232903 76 137 1.0 5.0 0.00 0.00 0.00 47 1008.5
20260504232803 76 136 1.0 5.0 0.00 0.00 0.00 48 1008.5
20260504232718 76 134 1.0 5.0 0.00 0.00 0.00 47 1008.5
20260504232703 76 133 1.0 5.0 0.00 0.00 0.00 47 1008.5
20260504232603 76 132 1.0 5.0 0.00 0.00 0.00 47 1008.5
20260504232417 76 129 1.0 5.0 0.00 0.00 0.00 47 1008.4
20260504232403 76 128 1.0 5.0 0.00 0.00 0.00 48 1008.4
20260504232304 76 124 1.0 5.0 0.00 0.00 0.00 47 1008.5
20260504232117 76 128 1.0 3.0 0.00 0.00 0.00 48 1008.5
20260504232103 76 127 1.0 3.0 0.00 0.00 0.00 48 1008.5
20260504232003 76 124 1.0 3.0 0.00 0.00 0.00 49 1008.5
20260504231803 76 114 0.0 2.0 0.00 0.00 0.00 49 1008.5
20260504231718 76 101 0.0 2.0 0.00 0.00 0.00 49 1008.5
20260504231704 76 96 0.0 2.0 0.00 0.00 0.00 49 1008.5
20260504231404 76 76 0.0 3.0 0.00 0.00 0.00 50 1008.5
20260504231303 76 66 0.0 3.0 0.00 0.00 0.00 51 1008.5
20260504231204 76 62 0.0 3.0 0.00 0.00 0.00 51 1008.5
20260504231103 76 57 0.0 3.0 0.00 0.00 0.00 52 1008.5
20260504231003 76 50 0.0 3.0 0.00 0.00 0.00 51 1008.5
20260504230919 76 53 0.0 3.0 0.00 0.00 0.00 51 1008.5
20260504230904 76 58 0.0 3.0 0.00 0.00 0.00 51 1008.5
20260504230804 76 66 0.0 3.0 0.00 0.00 0.00 51 1008.4
20260504230603 76 138 0.0 2.0 0.00 0.00 0.00 50 1008.5
20260504230504 76 138 0.0 2.0 0.00 0.00 0.00 49 1008.5
20260504230404 76 138 0.0 2.0 0.00 0.00 0.00 49 1008.5
20260504230304 76 133 1.0 3.0 0.00 0.00 0.00 49 1008.5
20260504230204 77 138 1.0 3.0 0.00 0.00 0.00 49 1008.4
20260504230003 77 145 1.0 3.0 0.00 0.00 0.00 49 1008.4
20260504225904 77 146 1.0 3.0 0.00 0.00 0.00 49 1008.5
20260504225803 77 150 1.0 3.0 0.00 0.00 0.00 47 1008.5
20260504225718 77 153 1.0 3.0 0.00 0.00 0.00 48 1008.5
20260504225703 77 154 1.0 3.0 0.00 0.00 0.00 48 1008.5
20260504225604 77 158 1.0 4.0 0.00 0.00 0.00 47 1008.5
20260504225404 77 164 1.0 4.0 0.00 0.00 0.00 47 1008.5
20260504225304 77 171 1.0 4.0 0.00 0.00 0.00 47 1008.5
20260504225204 77 171 1.0 4.0 0.00 0.00 0.00 47 1008.6
20260504225103 77 171 1.0 4.0 0.00 0.00 0.00 47 1008.6
20260504225003 77 171 1.0 4.0 0.00 0.00 0.00 46 1008.6
20260504224903 77 171 1.0 4.0 0.00 0.00 0.00 46 1008.6
20260504224819 77 172 1.0 4.0 0.00 0.00 0.00 46 1008.6
20260504224804 78 172 1.0 4.0 0.00 0.00 0.00 46 1008.6
20260504224704 78 168 1.0 4.0 0.00 0.00 0.00 45 1008.5
20260504224503 78 164 1.0 4.0 0.00 0.00 0.00 47 1008.6
20260504224417 78 147 1.0 4.0 0.00 0.00 0.00 47 1008.5
20260504224404 78 120 1.0 4.0 0.00 0.00 0.00 47 1008.5
20260504224303 78 136 1.0 6.0 0.00 0.00 0.00 47 1008.5
20260504224117 78 136 1.0 6.0 0.00 0.00 0.00 45 1008.5
20260504224103 78 134 1.0 6.0 0.00 0.00 0.00 45 1008.6
20260504224004 78 120 2.0 6.0 0.00 0.00 0.00 46 1008.6
20260504223918 78 112 2.0 6.0 0.00 0.00 0.00 46 1008.6
20260504223803 77 74 2.0 6.0 0.00 0.00 0.00 47 1008.6
20260504223604 78 68 2.0 6.0 0.00 0.00 0.00 45 1008.6
20260504223504 77 75 2.0 6.0 0.00 0.00 0.00 45 1008.6
20260504223403 77 87 2.0 6.0 0.00 0.00 0.00 46 1008.6
20260504223304 77 73 2.0 6.0 0.00 0.00 0.00 46 1008.6
20260504223204 77 77 2.0 4.0 0.00 0.00 0.00 47 1008.5
20260504223103 77 76 2.0 4.0 0.00 0.00 0.00 48 1008.5
20260504223004 77 53 2.0 4.0 0.00 0.00 0.00 48 1008.5
20260504222903 77 41 2.0 4.0 0.00 0.00 0.00 47 1008.5
20260504222804 77 71 2.0 4.0 0.00 0.00 0.00 46 1008.5
20260504222703 77 100 2.0 4.0 0.00 0.00 0.00 46 1008.6
20260504222604 78 106 1.0 4.0 0.00 0.00 0.00 46 1008.5
20260504222503 78 109 1.0 4.0 0.00 0.00 0.00 46 1008.5
20260504222404 78 117 1.0 4.0 0.00 0.00 0.00 47 1008.5
20260504222305 78 121 2.0 4.0 0.00 0.00 0.00 47 1008.5
20260504222203 78 130 1.0 4.0 0.00 0.00 0.00 47 1008.5
20260504222104 78 120 1.0 4.0 0.00 0.00 0.00 49 1008.5
20260504222003 78 125 1.0 4.0 0.00 0.00 0.00 48 1008.5
20260504221903 78 122 1.0 6.0 0.00 0.00 0.00 50 1008.5
20260504221803 78 112 2.0 6.0 0.00 0.00 0.00 48 1008.5
20260504221703 78 106 1.0 6.0 0.00 0.00 0.00 48 1008.5
20260504221603 78 104 1.0 6.0 0.00 0.00 0.00 48 1008.6
20260504221503 78 97 1.0 6.0 0.00 0.00 0.00 49 1008.6
20260504221403 78 97 1.0 6.0 0.00 0.00 0.00 47 1008.6
20260504221304 78 107 1.0 6.0 0.00 0.00 0.00 46 1008.6
20260504221218 78 112 1.0 6.0 0.00 0.00 0.00 47 1008.6
20260504221203 78 113 1.0 6.0 0.00 0.00 0.00 47 1008.6
20260504221103 78 100 2.0 6.0 0.00 0.00 0.00 46 1008.5
20260504220918 78 128 1.0 6.0 0.00 0.00 0.00 49 1008.5
20260504220903 78 134 1.0 6.0 0.00 0.00 0.00 47 1008.5
20260504220804 78 141 1.0 4.0 0.00 0.00 0.00 48 1008.5
20260504220604 78 145 1.0 4.0 0.00 0.00 0.00 47 1008.5
20260504220503 78 148 1.0 4.0 0.00 0.00 0.00 46 1008.5
20260504220303 78 157 1.0 4.0 0.00 0.00 0.00 47 1008.5
20260504220203 78 162 1.0 6.0 0.00 0.00 0.00 47 1008.5
20260504220104 78 163 1.0 6.0 0.00 0.00 0.00 48 1008.5
20260504220003 78 161 1.0 6.0 0.00 0.00 0.00 50 1008.4
20260504215903 78 161 1.0 6.0 0.00 0.00 0.00 48 1008.4
20260504215804 78 160 2.0 6.0 0.00 0.00 0.00 50 1008.5
20260504215717 78 160 2.0 6.0 0.00 0.00 0.00 49 1008.5
20260504215703 78 159 2.0 6.0 0.00 0.00 0.00 47 1008.5
20260504215603 78 155 2.0 6.0 0.00 0.00 0.00 46 1008.4
20260504215404 79 153 2.0 6.0 0.00 0.00 0.00 46 1008.5
20260504215304 79 155 2.0 6.0 0.00 0.00 0.00 46 1008.5
20260504215204 79 158 1.0 4.0 0.00 0.00 0.00 45 1008.4
20260504215103 79 163 1.0 4.0 0.00 0.00 0.00 47 1008.4
20260504215004 79 166 1.0 6.0 0.00 0.00 0.00 47 1008.4
20260504214903 79 169 2.0 6.0 0.00 0.00 0.00 49 1008.4
20260504214804 79 169 2.0 6.0 0.00 0.00 0.00 48 1008.4
20260504214704 79 171 2.0 6.0 0.00 0.00 0.00 47 1008.3
20260504214603 79 182 2.0 6.0 0.00 0.00 0.00 48 1008.3
20260504214503 79 187 2.0 6.0 0.00 0.00 0.00 46 1008.3
20260504214403 79 185 2.0 6.0 0.00 0.00 0.00 46 1008.3
20260504214303 79 181 2.0 6.0 0.00 0.00 0.00 45 1008.4
20260504214203 79 170 2.0 6.0 0.00 0.00 0.00 45 1008.3
20260504214104 79 165 2.0 6.0 0.00 0.00 0.00 46 1008.3
20260504214003 79 157 2.0 5.0 0.00 0.00 0.00 48 1008.4
20260504213904 79 104 2.0 6.0 0.00 0.00 0.00 46 1008.4
20260504213804 79 63 2.0 6.0 0.00 0.00 0.00 48 1008.4
20260504213703 79 76 2.0 6.0 0.00 0.00 0.00 47 1008.3
20260504213604 79 81 2.0 6.0 0.00 0.00 0.00 47 1008.3
20260504213503 79 92 2.0 6.0 0.00 0.00 0.00 47 1008.4
20260504213404 78 81 2.0 6.0 0.00 0.00 0.00 47 1008.3
20260504213303 78 60 2.0 6.0 0.00 0.00 0.00 48 1008.3
20260504213203 79 58 2.0 6.0 0.00 0.00 0.00 47 1008.3
20260504213103 79 108 2.0 6.0 0.00 0.00 0.00 47 1008.3
20260504213003 79 136 2.0 6.0 0.00 0.00 0.00 47 1008.3
20260504212918 79 151 2.0 6.0 0.00 0.00 0.00 46 1008.3
20260504212903 79 158 2.0 6.0 0.00 0.00 0.00 46 1008.3
20260504212804 79 162 2.0 6.0 0.00 0.00 0.00 46 1008.3
20260504212603 79 172 2.0 6.0 0.00 0.00 0.00 45 1008.4
20260504212504 79 173 2.0 6.0 0.00 0.00 0.00 47 1008.3
20260504212419 79 174 2.0 6.0 0.00 0.00 0.00 48 1008.3
20260504212403 79 176 2.0 6.0 0.00 0.00 0.00 48 1008.3
20260504212317 79 172 1.0 4.0 0.00 0.00 0.00 47 1008.3
20260504212304 79 171 1.0 4.0 0.00 0.00 0.00 47 1008.3
20260504212003 80 166 1.0 4.0 0.00 0.00 0.00 46 1008.3
20260504211903 80 168 2.0 4.0 0.00 0.00 0.00 44 1008.3
20260504211803 80 171 2.0 4.0 0.00 0.00 0.00 46 1008.3
20260504211719 80 164 2.0 4.0 0.00 0.00 0.00 46 1008.3
20260504211703 80 162 2.0 4.0 0.00 0.00 0.00 46 1008.3
20260504211604 80 171 1.0 4.0 0.00 0.00 0.00 45 1008.3
20260504211403 80 182 1.0 4.0 0.00 0.00 0.00 46 1008.3
20260504211304 80 180 1.0 4.0 0.00 0.00 0.00 46 1008.3
20260504211218 80 179 2.0 4.0 0.00 0.00 0.00 48 1008.3
20260504211203 80 178 2.0 4.0 0.00 0.00 0.00 48 1008.3
20260504211104 80 179 1.0 4.0 0.00 0.00 0.00 46 1008.4
20260504210903 80 163 1.0 5.0 0.00 0.00 0.00 44 1008.3
20260504210818 80 155 1.0 5.0 0.00 0.00 0.00 44 1008.3
20260504210803 80 154 1.0 5.0 0.00 0.00 0.00 44 1008.3
20260504210704 80 167 1.0 5.0 0.00 0.00 0.00 47 1008.4
20260504210518 80 40 1.0 5.0 0.00 0.00 0.00 46 1008.4
20260504210503 80 49 1.0 5.0 0.00 0.00 0.00 46 1008.4
20260504210403 80 356 1.0 5.0 0.00 0.00 0.00 49 1008.4
20260504210204 80 51 1.0 5.0 0.00 0.00 0.00 46 1008.4
20260504210004 80 163 2.0 5.0 0.00 0.00 0.00 45 1008.4
20260504205903 80 188 2.0 5.0 0.00 0.00 0.00 45 1008.5
20260504205803 80 193 2.0 5.0 0.00 0.00 0.00 45 1008.5
20260504205703 80 183 2.0 5.0 0.00 0.00 0.00 44 1008.5
20260504205619 80 185 2.0 7.0 0.00 0.00 0.00 46 1008.5
20260504205604 80 182 2.0 7.0 0.00 0.00 0.00 46 1008.5
20260504205504 80 178 2.0 7.0 0.00 0.00 0.00 45 1008.5
20260504205304 80 176 2.0 7.0 0.00 0.00 0.00 47 1008.5
20260504205204 80 178 2.0 7.0 0.00 0.00 0.00 46 1008.5
20260504205104 80 174 2.0 7.0 0.00 0.00 0.00 44 1008.6
20260504205017 80 168 2.0 7.0 0.00 0.00 0.00 44 1008.6
20260504205004 80 167 2.0 7.0 0.00 0.00 0.00 44 1008.6
20260504204918 80 162 2.0 7.0 0.00 0.00 0.00 45 1008.5
20260504204903 80 161 2.0 7.0 0.00 0.00 0.00 45 1008.5
20260504204719 81 160 2.0 7.0 0.00 0.00 0.00 44 1008.4
20260504204603 80 164 2.0 7.0 0.00 0.00 0.00 42 1008.6
20260504204518 80 161 2.0 7.0 0.00 0.00 0.00 42 1008.6
20260504204404 80 154 2.0 7.0 0.00 0.00 0.00 42 1008.6
20260504204317 80 155 2.0 7.0 0.00 0.00 0.00 43 1008.6
20260504204204 81 156 2.0 7.0 0.00 0.00 0.00 43 1008.6
20260504204019 81 180 2.0 8.0 0.00 0.00 0.00 43 1008.5
20260504204004 81 183 2.0 8.0 0.00 0.00 0.00 43 1008.6
20260504203904 81 187 2.0 8.0 0.00 0.00 0.00 43 1008.6
20260504203703 81 153 2.0 8.0 0.00 0.00 0.00 43 1008.6
20260504203617 81 158 2.0 8.0 0.00 0.00 0.00 44 1008.7
20260504203603 81 160 2.0 8.0 0.00 0.00 0.00 44 1008.7
20260504203503 81 161 2.0 8.0 0.00 0.00 0.00 43 1008.7
20260504203304 81 165 2.0 8.0 0.00 0.00 0.00 44 1008.6
20260504203204 82 180 1.0 8.0 0.00 0.00 0.00 41 1008.6
20260504203003 81 132 1.0 4.0 0.00 0.00 0.00 44 1008.6
20260504202904 81 120 1.0 5.0 0.00 0.00 0.00 45 1008.6
20260504202804 81 130 1.0 5.0 0.00 0.00 0.00 43 1008.6
20260504202716 81 145 1.0 6.0 0.00 0.00 0.00 45 1008.6
20260504202704 81 147 1.0 6.0 0.00 0.00 0.00 45 1008.7
20260504202603 81 138 1.0 6.0 0.00 0.00 0.00 43 1008.7
20260504202404 82 222 2.0 6.0 0.00 0.00 0.00 44 1008.7
20260504202305 81 49 2.0 6.0 0.00 0.00 0.00 43 1008.7
20260504202218 81 54 2.0 6.0 0.00 0.00 0.00 42 1008.7
20260504202204 81 64 2.0 6.0 0.00 0.00 0.00 42 1008.8
20260504202104 81 51 2.0 6.0 0.00 0.00 0.00 42 1008.8
20260504201903 81 62 2.0 6.0 0.00 0.00 0.00 45 1008.8
20260504201803 81 54 2.0 6.0 0.00 0.00 0.00 43 1008.7
20260504201718 81 25 2.0 4.0 0.00 0.00 0.00 43 1008.7
20260504201703 81 36 2.0 4.0 0.00 0.00 0.00 44 1008.8
20260504201617 81 68 2.0 4.0 0.00 0.00 0.00 42 1008.8
20260504201603 81 85 2.0 4.0 0.00 0.00 0.00 42 1008.8
20260504201317 81 157 2.0 6.0 0.00 0.00 0.00 44 1008.8
20260504201303 81 158 2.0 6.0 0.00 0.00 0.00 44 1008.8
20260504201203 81 160 2.0 6.0 0.00 0.00 0.00 45 1008.9
20260504201003 81 149 2.0 6.0 0.00 0.00 0.00 44 1008.9
20260504200917 81 147 2.0 6.0 0.00 0.00 0.00 44 1008.9
20260504200904 81 146 2.0 6.0 0.00 0.00 0.00 44 1008.9
20260504200803 81 147 2.0 6.0 0.00 0.00 0.00 45 1008.9
20260504200603 81 137 2.0 6.0 0.00 0.00 0.00 46 1008.9
20260504200504 81 124 2.0 6.0 0.00 0.00 0.00 44 1009.0
20260504200403 81 103 2.0 6.0 0.00 0.00 0.00 44 1009.0
20260504200303 81 60 2.0 6.0 0.00 0.00 0.00 45 1009.0
20260504200203 81 30 2.0 6.0 0.00 0.00 0.00 43 1009.0
20260504200003 81 312 2.0 6.0 0.00 0.00 0.00 44 1009.1
20260504195903 81 283 2.0 6.0 0.00 0.00 0.00 43 1009.2
20260504195803 81 316 2.0 7.0 0.00 0.00 0.00 45 1009.2
20260504195703 80 326 2.0 7.0 0.00 0.00 0.00 48 1009.2
20260504195604 80 193 2.0 7.0 0.00 0.00 0.00 50 1009.2
20260504195503 80 176 2.0 7.0 0.00 0.00 0.00 48 1009.2
20260504195403 80 171 2.0 7.0 0.00 0.00 0.00 47 1009.2
20260504195304 79 164 2.0 7.0 0.00 0.00 0.00 47 1009.2
20260504195204 79 156 2.0 7.0 0.00 0.00 0.00 47 1009.3
20260504195104 80 140 2.0 7.0 0.00 0.00 0.00 49 1009.4
20260504195003 80 134 2.0 7.0 0.00 0.00 0.00 47 1009.4
20260504194917 80 124 2.0 7.0 0.00 0.00 0.00 47 1009.4
20260504194904 80 125 2.0 7.0 0.00 0.00 0.00 47 1009.4
20260504194803 80 127 2.0 6.0 0.00 0.00 0.00 47 1009.4
20260504194718 80 133 2.0 6.0 0.00 0.00 0.00 48 1009.4
20260504194604 80 124 2.0 6.0 0.00 0.00 0.00 47 1009.4
20260504194403 80 114 2.0 5.0 0.00 0.00 0.00 45 1009.4
20260504194303 81 116 2.0 5.0 0.00 0.00 0.00 48 1009.4
20260504194204 81 119 2.0 5.0 0.00 0.00 0.00 45 1009.4
20260504194118 81 124 2.0 5.0 0.00 0.00 0.00 47 1009.4
20260504194103 81 125 2.0 5.0 0.00 0.00 0.00 47 1009.4
20260504194004 81 128 2.0 5.0 0.00 0.00 0.00 47 1009.4
20260504193818 80 135 2.0 5.0 0.00 0.00 0.00 48 1009.5
20260504193804 80 136 2.0 5.0 0.00 0.00 0.00 48 1009.5
20260504193703 80 137 2.0 5.0 0.00 0.00 0.00 51 1009.5
20260504193503 80 161 2.0 4.0 0.00 0.00 0.00 46 1009.6
20260504193403 80 164 1.0 4.0 0.00 0.00 0.00 47 1009.5
20260504193303 80 169 1.0 3.0 0.00 0.00 0.00 48 1009.5
20260504193203 80 166 1.0 3.0 0.00 0.00 0.00 47 1009.5
20260504193103 80 171 1.0 4.0 0.00 0.00 0.00 47 1009.6
20260504193004 80 172 2.0 4.0 0.00 0.00 0.00 46 1009.6
20260504192903 81 171 2.0 4.0 0.00 0.00 0.00 47 1009.6
20260504192803 81 170 2.0 4.0 0.00 0.00 0.00 47 1009.7
20260504192704 81 176 2.0 4.0 0.00 0.00 0.00 46 1009.7
20260504192603 81 198 2.0 4.0 0.00 0.00 0.00 46 1009.7
20260504192503 82 212 2.0 6.0 0.00 0.00 0.00 46 1009.7
20260504192403 82 213 2.0 6.0 0.00 0.00 0.00 45 1009.7
20260504192319 82 201 2.0 6.0 0.00 0.00 0.00 47 1009.7
20260504192304 82 198 2.0 6.0 0.00 0.00 0.00 47 1009.7
20260504192203 82 201 2.0 6.0 0.00 0.00 0.00 48 1009.7
20260504192118 82 195 2.0 6.0 0.00 0.00 0.00 47 1009.7
20260504192004 82 190 2.0 6.0 0.00 0.00 0.00 49 1009.7
20260504191803 82 197 1.0 6.0 0.00 0.00 0.00 44 1009.7
20260504191703 82 161 1.0 6.0 0.00 0.00 0.00 47 1009.7
20260504191603 82 148 1.0 6.0 0.00 0.00 0.00 48 1009.8
20260504191503 82 137 1.0 4.0 0.00 0.00 0.00 49 1009.8
20260504191403 82 117 1.0 4.0 0.00 0.00 0.00 51 1009.8
20260504191317 82 106 1.0 4.0 0.00 0.00 0.00 48 1009.8
20260504191304 82 99 1.0 4.0 0.00 0.00 0.00 46 1009.8
20260504191203 82 94 1.0 4.0 0.00 0.00 0.00 48 1009.8
20260504191004 81 94 1.0 3.0 0.00 0.00 0.00 49 1009.8
20260504190903 81 91 1.0 3.0 0.00 0.00 0.00 48 1009.8
20260504190804 81 98 2.0 4.0 0.00 0.00 0.00 48 1010.0
20260504190703 81 99 2.0 4.0 0.00 0.00 0.00 50 1010.0
20260504190603 81 101 2.0 4.0 0.00 0.00 0.00 50 1010.0
20260504190503 80 108 2.0 4.0 0.00 0.00 0.00 47 1010.0
20260504190418 80 119 2.0 4.0 0.00 0.00 0.00 48 1010.0
20260504190403 80 124 2.0 4.0 0.00 0.00 0.00 48 1010.0
20260504190304 81 130 2.0 4.0 0.00 0.00 0.00 47 1010.0
20260504190004 81 151 2.0 8.0 0.00 0.00 0.00 46 1010.1
20260504185904 81 148 2.0 8.0 0.00 0.00 0.00 47 1010.1
20260504185804 81 148 2.0 8.0 0.00 0.00 0.00 48 1010.1
20260504185504 80 152 2.0 8.0 0.00 0.00 0.00 50 1010.0
20260504185403 80 150 2.0 8.0 0.00 0.00 0.00 53 1010.0
20260504185317 80 147 2.0 8.0 0.00 0.00 0.00 53 1010.1
20260504185304 80 149 2.0 8.0 0.00 0.00 0.00 53 1010.1
20260504185203 80 147 2.0 8.0 0.00 0.00 0.00 49 1010.1
20260504185003 79 130 2.0 6.0 0.00 0.00 0.00 52 1010.1
20260504184905 79 137 2.0 4.0 0.00 0.00 0.00 51 1010.1
20260504184819 79 129 1.0 4.0 0.00 0.00 0.00 50 1010.1
20260504184804 79 127 1.0 4.0 0.00 0.00 0.00 50 1010.1
20260504184703 79 141 2.0 4.0 0.00 0.00 0.00 50 1010.1
20260504184617 79 150 2.0 4.0 0.00 0.00 0.00 49 1010.1
20260504184503 78 144 2.0 4.0 0.00 0.00 0.00 49 1010.2
20260504184316 78 151 2.0 7.0 0.00 0.00 0.00 52 1010.2
20260504184303 78 152 2.0 7.0 0.00 0.00 0.00 51 1010.2
20260504184203 78 156 2.0 7.0 0.00 0.00 0.00 52 1010.1
20260504184004 79 155 2.0 7.0 0.00 0.00 0.00 47 1010.1
20260504183903 80 161 2.0 7.0 0.00 0.00 0.00 48 1010.1
20260504183803 80 156 2.0 7.0 0.00 0.00 0.00 47 1010.1
20260504183704 80 150 2.0 7.0 0.00 0.00 0.00 48 1010.2
20260504183603 80 154 2.0 7.0 0.00 0.00 0.00 48 1010.2
20260504183503 80 165 2.0 7.0 0.00 0.00 0.00 51 1010.1
20260504183403 80 173 2.0 7.0 0.00 0.00 0.00 49 1010.2
20260504183303 80 183 2.0 6.0 0.00 0.00 0.00 48 1010.2
20260504183204 80 200 2.0 6.0 0.00 0.00 0.00 49 1010.2
20260504183117 80 206 2.0 6.0 0.00 0.00 0.00 49 1010.2
20260504183103 80 211 2.0 6.0 0.00 0.00 0.00 49 1010.2
20260504183004 80 189 2.0 4.0 0.00 0.00 0.00 48 1010.2
20260504182803 80 183 2.0 4.0 0.00 0.00 0.00 47 1010.1
20260504182704 80 179 2.0 7.0 0.00 0.00 0.00 50 1010.3
20260504182603 80 177 2.0 7.0 0.00 0.00 0.00 50 1010.3
20260504182503 80 174 2.0 7.0 0.00 0.00 0.00 50 1010.3
20260504182403 80 171 2.0 7.0 0.00 0.00 0.00 49 1010.2
20260504182304 80 169 2.0 7.0 0.00 0.00 0.00 51 1010.2
20260504182203 80 168 2.0 7.0 0.00 0.00 0.00 47 1010.4
20260504182119 80 166 2.0 7.0 0.00 0.00 0.00 49 1010.4
20260504182103 80 165 2.0 7.0 0.00 0.00 0.00 49 1010.3
20260504182003 80 167 2.0 7.0 0.00 0.00 0.00 48 1010.3
20260504181803 80 168 1.0 7.0 0.00 0.00 0.00 47 1010.4
20260504181703 80 169 1.0 4.0 0.00 0.00 0.00 49 1010.4
20260504181604 80 171 1.0 3.0 0.00 0.00 0.00 52 1010.4
20260504181504 80 168 1.0 4.0 0.00 0.00 0.00 50 1010.4
20260504181405 80 162 1.0 4.0 0.00 0.00 0.00 49 1010.4
20260504181304 80 166 2.0 4.0 0.00 0.00 0.00 49 1010.4
20260504181205 80 174 2.0 6.0 0.00 0.00 0.00 49 1010.4
20260504181103 80 173 1.0 6.0 0.00 0.00 0.00 49 1010.4
20260504181003 80 164 1.0 6.0 0.00 0.00 0.00 49 1010.4
20260504180916 80 159 2.0 6.0 0.00 0.00 0.00 51 1010.5
20260504180903 80 154 2.0 6.0 0.00 0.00 0.00 53 1010.5
20260504180803 80 102 2.0 6.0 0.00 0.00 0.00 50 1010.5
20260504180603 80 123 2.0 6.0 0.00 0.00 0.00 49 1010.5
20260504180503 80 157 2.0 6.0 0.00 0.00 0.00 50 1010.5
20260504180417 80 165 1.0 6.0 0.00 0.00 0.00 50 1010.5
20260504180405 80 172 1.0 6.0 0.00 0.00 0.00 50 1010.5
20260504180318 80 169 1.0 6.0 0.00 0.00 0.00 50 1010.5
20260504180303 80 161 1.0 6.0 0.00 0.00 0.00 50 1010.5
20260504180219 80 99 1.0 6.0 0.00 0.00 0.00 50 1010.5
20260504175903 80 134 2.0 5.0 0.00 0.00 0.00 48 1010.6
20260504175803 80 142 2.0 4.0 0.00 0.00 0.00 48 1010.5
20260504175703 80 139 1.0 4.0 0.00 0.00 0.00 48 1010.5
20260504175603 80 136 1.0 4.0 0.00 0.00 0.00 49 1010.5
20260504175504 80 137 2.0 4.0 0.00 0.00 0.00 48 1010.6
20260504175403 80 139 2.0 4.0 0.00 0.00 0.00 49 1010.6
20260504175304 80 138 2.0 4.0 0.00 0.00 0.00 49 1010.6
20260504175217 80 145 2.0 4.0 0.00 0.00 0.00 49 1010.6
20260504175204 80 149 2.0 6.0 0.00 0.00 0.00 49 1010.6
20260504175104 80 150 2.0 6.0 0.00 0.00 0.00 49 1010.5
20260504174903 81 153 2.0 6.0 0.00 0.00 0.00 46 1010.6
20260504174804 81 151 2.0 6.0 0.00 0.00 0.00 47 1010.6
20260504174704 81 154 2.0 6.0 0.00 0.00 0.00 49 1010.6
20260504174604 81 156 2.0 6.0 0.00 0.00 0.00 46 1010.6
20260504174504 81 152 2.0 6.0 0.00 0.00 0.00 47 1010.6
20260504174404 81 152 2.0 6.0 0.00 0.00 0.00 47 1010.6
20260504174303 81 150 2.0 6.0 0.00 0.00 0.00 48 1010.6
20260504174203 81 58 1.0 6.0 0.00 0.00 0.00 50 1010.6
20260504174103 81 19 1.0 5.0 0.00 0.00 0.00 49 1010.6
20260504174003 81 14 1.0 5.0 0.00 0.00 0.00 51 1010.6
20260504173903 81 39 1.0 3.0 0.00 0.00 0.00 51 1010.6
20260504173803 81 22 1.0 3.0 0.00 0.00 0.00 50 1010.6
20260504173718 81 31 1.0 3.0 0.00 0.00 0.00 48 1010.6
20260504173703 81 37 1.0 3.0 0.00 0.00 0.00 48 1010.6
20260504173604 81 46 1.0 3.0 0.00 0.00 0.00 48 1010.6
20260504173403 80 74 1.0 3.0 0.00 0.00 0.00 50 1010.7
20260504173303 80 112 1.0 4.0 0.00 0.00 0.00 51 1010.7
20260504173203 80 137 2.0 6.0 0.00 0.00 0.00 51 1010.8
20260504173103 80 149 2.0 6.0 0.00 0.00 0.00 49 1010.8
20260504173003 80 153 2.0 6.0 0.00 0.00 0.00 49 1010.8
20260504172903 80 153 2.0 6.0 0.00 0.00 0.00 48 1010.8
20260504172803 80 150 2.0 6.0 0.00 0.00 0.00 49 1010.9
20260504172703 80 148 2.0 6.0 0.00 0.00 0.00 49 1010.9
20260504172604 80 144 2.0 6.0 0.00 0.00 0.00 49 1010.9
20260504172519 80 147 2.0 6.0 0.00 0.00 0.00 51 1010.9
20260504172504 80 148 2.0 6.0 0.00 0.00 0.00 51 1010.9
20260504172403 80 150 2.0 6.0 0.00 0.00 0.00 48 1011.0
20260504172203 80 138 2.0 5.0 0.00 0.00 0.00 48 1011.0
20260504172103 80 134 2.0 5.0 0.00 0.00 0.00 50 1011.0
20260504172003 80 125 2.0 4.0 0.00 0.00 0.00 49 1010.9
20260504171903 80 148 2.0 7.0 0.00 0.00 0.00 49 1010.9
20260504171803 80 158 2.0 7.0 0.00 0.00 0.00 49 1010.9
20260504171704 80 159 2.0 7.0 0.00 0.00 0.00 50 1011.0
20260504171605 80 167 2.0 7.0 0.00 0.00 0.00 51 1011.0
20260504171505 80 185 2.0 7.0 0.00 0.00 0.00 50 1011.0
20260504171405 79 188 2.0 7.0 0.00 0.00 0.00 48 1011.0
20260504171304 79 184 2.0 7.0 0.00 0.00 0.00 49 1011.0
20260504171219 79 193 2.0 7.0 0.00 0.00 0.00 50 1011.1
20260504171204 79 190 2.0 7.0 0.00 0.00 0.00 50 1011.1
20260504171103 79 192 2.0 7.0 0.00 0.00 0.00 52 1011.1
20260504170903 79 190 2.0 4.0 0.00 0.00 0.00 51 1011.2
20260504170803 79 199 2.0 4.0 0.00 0.00 0.00 51 1011.2
20260504170703 79 205 2.0 4.0 0.00 0.00 0.00 51 1011.1
20260504170604 79 178 1.0 4.0 0.00 0.00 0.00 50 1011.2
20260504170504 79 151 1.0 4.0 0.00 0.00 0.00 50 1011.2
20260504170419 79 162 1.0 4.0 0.00 0.00 0.00 51 1011.2
20260504170403 79 160 1.0 4.0 0.00 0.00 0.00 51 1011.2
20260504170304 79 153 1.0 4.0 0.00 0.00 0.00 50 1011.2
20260504170104 79 137 1.0 6.0 0.00 0.00 0.00 52 1011.3
20260504160203 77 154 1.0 6.0 0.00 0.00 0.00 52 1012.0
20260504151103 74 144 1.0 7.0 0.00 0.00 0.00 56 1012.3
20260504150903 74 151 1.0 7.0 0.00 0.00 0.00 57 1012.3
20260504150803 73 156 1.0 7.0 0.00 0.00 0.00 56 1012.3
20260504150703 73 156 1.0 7.0 0.00 0.00 0.00 54 1012.3
20260504150603 73 161 1.0 7.0 0.00 0.00 0.00 56 1012.3
20260504150503 73 155 1.0 4.0 0.00 0.00 0.00 56 1012.3
20260504150403 73 155 1.0 4.0 0.00 0.00 0.00 55 1012.3
20260504150303 73 151 1.0 4.0 0.00 0.00 0.00 56 1012.3
20260504150203 73 153 1.0 4.0 0.00 0.00 0.00 56 1012.3
20260504150103 73 173 1.0 4.0 0.00 0.00 0.00 58 1012.3
20260504141304 68 354 1.0 5.0 0.00 0.00 0.00 59 1012.6
20260504141203 68 358 1.0 5.0 0.00 0.00 0.00 60 1012.6
20260504141103 68 351 1.0 5.0 0.00 0.00 0.00 61 1012.7
20260504141003 68 185 1.0 5.0 0.00 0.00 0.00 60 1012.7
20260504140903 68 184 1.0 5.0 0.00 0.00 0.00 59 1012.8
20260504140804 68 176 1.0 5.0 0.00 0.00 0.00 60 1012.8
20260504140703 68 168 1.0 3.0 0.00 0.00 0.00 60 1012.8
20260504140603 68 198 1.0 3.0 0.00 0.00 0.00 60 1012.8
20260504140504 68 268 1.0 4.0 0.00 0.00 0.00 60 1012.8
20260504140404 68 284 1.0 4.0 0.00 0.00 0.00 60 1012.9
20260504140304 68 282 1.0 4.0 0.00 0.00 0.00 59 1012.9
20260504140204 68 299 1.0 4.0 0.00 0.00 0.00 60 1012.9
20260504140103 68 253 1.0 4.0 0.00 0.00 0.00 60 1012.9
20260504130803 62 138 1.0 3.0 0.00 0.00 0.00 65 1013.1
20260504130703 62 138 1.0 3.0 0.00 0.00 0.00 66 1013.2
20260504130603 62 136 1.0 3.0 0.00 0.00 0.00 66 1013.2
20260504130503 62 114 1.0 3.0 0.00 0.00 0.00 65 1013.0
20260504130404 62 86 1.0 3.0 0.00 0.00 0.00 67 1013.2
20260504130303 61 30 1.0 7.0 0.00 0.00 0.00 68 1013.2
20260504130203 61 25 1.0 7.0 0.00 0.00 0.00 69 1013.2
20260504130117 61 28 1.0 7.0 0.00 0.00 0.00 68 1013.2
20260504120303 55 296 0.0 3.0 0.00 0.00 0.00 77 1013.0
20260504120218 55 296 0.0 3.0 0.00 0.00 0.00 77 1013.0
20260504120203 55 296 0.0 3.0 0.00 0.00 0.00 77 1012.9
20260504110703 56 308 0.0 2.0 0.00 0.00 0.00 69 1012.5
20260504110604 56 168 0.0 2.0 0.00 0.00 0.00 69 1012.5
20260504110503 56 164 0.0 2.0 0.00 0.00 0.00 69 1012.5
20260504110403 56 162 0.0 2.0 0.00 0.00 0.00 70 1012.5
20260504110303 56 159 0.0 2.0 0.00 0.00 0.00 70 1012.5
20260504110203 56 159 0.0 2.0 0.00 0.00 0.00 70 1012.5
20260504110103 56 159 0.0 2.0 0.00 0.00 0.00 69 1012.5
20260504100603 56 333 1.0 4.0 0.00 0.00 0.00 68 1012.2
20260504100518 56 337 1.0 4.0 0.00 0.00 0.00 68 1012.2
20260504100504 56 339 1.0 4.0 0.00 0.00 0.00 68 1012.2
20260504100404 56 348 1.0 4.0 0.00 0.00 0.00 68 1012.2
20260504100319 56 351 1.0 4.0 0.00 0.00 0.00 67 1012.2
20260504100203 56 357 1.0 5.0 0.00 0.00 0.00 66 1012.1
20260504082003 54 272 1.0 4.0 0.00 0.00 0.00 69 1012.6
20260504081803 54 286 1.0 4.0 0.00 0.00 0.00 68 1012.6
20260504081703 54 291 1.0 4.0 0.00 0.00 0.00 68 1012.6
20260504081617 54 298 1.0 4.0 0.00 0.00 0.00 68 1012.6
20260504081603 54 300 1.0 4.0 0.00 0.00 0.00 68 1012.6
20260504081517 54 308 1.0 4.0 0.00 0.00 0.00 68 1012.6
20260504081503 54 312 1.0 4.0 0.00 0.00 0.00 68 1012.6
20260504081316 54 313 1.0 4.0 0.00 0.00 0.00 68 1012.6
20260504081204 54 318 1.0 4.0 0.00 0.00 0.00 68 1012.6
20260504081117 54 318 1.0 4.0 0.00 0.00 0.00 68 1012.6
20260504081003 54 322 1.0 3.0 0.00 0.00 0.00 69 1012.6
20260504080804 54 307 1.0 3.0 0.00 0.00 0.00 68 1012.6
20260504080703 54 294 1.0 3.0 0.00 0.00 0.00 68 1012.6
20260504080603 54 220 1.0 3.0 0.00 0.00 0.00 68 1012.7
20260504080503 54 178 1.0 3.0 0.00 0.00 0.00 69 1012.6
20260504080403 54 174 1.0 3.0 0.00 0.00 0.00 69 1012.6
20260504080304 54 164 1.0 2.0 0.00 0.00 0.00 69 1012.6
20260504080203 54 163 1.0 2.0 0.00 0.00 0.00 69 1012.6
20260504080104 54 163 1.0 2.0 0.00 0.00 0.00 70 1012.6
20260504070403 51 301 1.0 3.0 0.00 0.00 0.00 74 1013.2
20260504070303 51 298 1.0 3.0 0.00 0.00 0.00 74 1013.2
20260504070204 51 302 1.0 3.0 0.00 0.00 0.00 74 1013.2
20260504060204 51 289 0.0 1.0 0.00 0.00 0.00 76 1013.6
20260504060104 51 289 0.0 1.0 0.00 0.00 0.00 76 1013.6
20260504050704 52 290 0.0 1.0 0.00 0.00 0.00 74 1013.7
20260504050603 52 290 0.0 1.0 0.00 0.00 0.00 74 1013.7
20260504050503 52 290 0.0 1.0 0.00 0.00 0.00 74 1013.7
20260504050403 52 290 0.0 1.0 0.00 0.00 0.00 74 1013.7
20260504050303 52 290 0.0 1.0 0.00 0.00 0.00 74 1013.6
20260504050203 52 290 0.0 1.0 0.00 0.00 0.00 74 1013.6
20260504050103 52 290 0.0 1.0 0.00 0.00 0.00 74 1013.6
20260504050004 52 290 0.0 1.0 0.00 0.00 0.00 74 1013.6
20260504045903 52 290 0.0 1.0 0.00 0.00 0.00 74 1013.6
20260504045704 52 290 0.0 1.0 0.00 0.00 0.00 74 1013.6
20260504045604 52 290 0.0 1.0 0.00 0.00 0.00 74 1013.7
20260504045503 52 290 0.0 1.0 0.00 0.00 0.00 74 1013.7
20260504045403 52 290 0.0 1.0 0.00 0.00 0.00 74 1013.7
20260504045304 52 290 0.0 1.0 0.00 0.00 0.00 74 1013.7
20260504045203 52 290 0.0 1.0 0.00 0.00 0.00 75 1013.7
20260504045104 52 290 0.0 1.0 0.00 0.00 0.00 75 1013.7
20260504045004 52 290 0.0 1.0 0.00 0.00 0.00 75 1013.7
20260504044918 52 290 0.0 2.0 0.00 0.00 0.00 74 1013.7
20260504044803 52 290 0.0 2.0 0.00 0.00 0.00 74 1013.8
20260504044603 52 290 0.0 2.0 0.00 0.00 0.00 75 1013.7
20260504044518 52 290 0.0 2.0 0.00 0.00 0.00 74 1013.7
20260504044504 52 290 0.0 2.0 0.00 0.00 0.00 74 1013.8
20260504044419 53 290 0.0 2.0 0.00 0.00 0.00 74 1013.8
20260504044403 52 290 0.0 2.0 0.00 0.00 0.00 74 1013.8
20260504044104 53 290 0.0 2.0 0.00 0.00 0.00 74 1013.9
20260504044004 53 290 0.0 2.0 0.00 0.00 0.00 73 1013.8
20260504043904 53 290 0.0 2.0 0.00 0.00 0.00 72 1013.8
20260504043803 53 290 0.0 2.0 0.00 0.00 0.00 72 1013.8
20260504043603 53 290 0.0 2.0 0.00 0.00 0.00 71 1013.8
20260504043504 53 290 0.0 2.0 0.00 0.00 0.00 71 1013.8
20260504043417 54 295 0.0 3.0 0.00 0.00 0.00 71 1013.8
20260504043403 54 297 0.0 3.0 0.00 0.00 0.00 71 1013.8
20260504043304 54 312 0.0 3.0 0.00 0.00 0.00 71 1013.8
20260504043104 54 321 0.0 3.0 0.00 0.00 0.00 70 1013.8
20260504043003 54 334 1.0 3.0 0.00 0.00 0.00 70 1013.7
20260504042903 54 340 1.0 3.0 0.00 0.00 0.00 69 1013.7
20260504042804 54 341 1.0 3.0 0.00 0.00 0.00 69 1013.7
20260504042704 55 341 1.0 3.0 0.00 0.00 0.00 68 1013.7
20260504042604 55 344 1.0 3.0 0.00 0.00 0.00 68 1013.7
20260504042504 55 349 1.0 3.0 0.00 0.00 0.00 68 1013.6
20260504042404 55 360 1.0 2.0 0.00 0.00 0.00 68 1013.6
20260504042304 55 360 1.0 3.0 0.00 0.00 0.00 69 1013.6
20260504042204 55 360 1.0 3.0 0.00 0.00 0.00 68 1013.6
20260504042103 55 360 1.0 3.0 0.00 0.00 0.00 67 1013.6
20260504042003 55 360 0.0 4.0 0.00 0.00 0.00 65 1013.6
20260504041904 55 4 1.0 4.0 0.00 0.00 0.00 66 1013.6
20260504041719 55 19 1.0 4.0 0.00 0.00 0.00 66 1013.6
20260504041703 55 21 1.0 4.0 0.00 0.00 0.00 66 1013.6
20260504041603 55 26 1.0 4.0 0.00 0.00 0.00 66 1013.6
20260504041403 56 69 1.0 4.0 0.00 0.00 0.00 66 1013.6
20260504041303 56 120 1.0 4.0 0.00 0.00 0.00 65 1013.6
20260504041203 56 144 1.0 4.0 0.00 0.00 0.00 66 1013.6
20260504041118 56 147 0.0 4.0 0.00 0.00 0.00 65 1013.6
20260504041103 55 148 0.0 4.0 0.00 0.00 0.00 66 1013.6
20260504040803 56 157 0.0 3.0 0.00 0.00 0.00 66 1013.6
20260504040703 56 157 0.0 3.0 0.00 0.00 0.00 66 1013.6
20260504040604 56 157 0.0 3.0 0.00 0.00 0.00 66 1013.6
20260504040518 56 157 0.0 3.0 0.00 0.00 0.00 65 1013.5
20260504040504 56 157 0.0 3.0 0.00 0.00 0.00 66 1013.5
20260504040404 56 151 0.0 3.0 0.00 0.00 0.00 66 1013.5
20260504040203 55 145 1.0 3.0 0.00 0.00 0.00 67 1013.5
20260504040104 55 142 1.0 3.0 0.00 0.00 0.00 67 1013.5
20260504040003 55 141 1.0 3.0 0.00 0.00 0.00 67 1013.5
20260504035903 55 139 1.0 3.0 0.00 0.00 0.00 69 1013.5
20260504035704 55 136 1.0 3.0 0.00 0.00 0.00 68 1013.4
20260504035603 54 135 1.0 3.0 0.00 0.00 0.00 70 1013.4
20260504035517 54 134 1.0 3.0 0.00 0.00 0.00 70 1013.4
20260504035503 54 133 1.0 3.0 0.00 0.00 0.00 70 1013.4
20260504035404 54 133 1.0 3.0 0.00 0.00 0.00 71 1013.4
20260504035204 53 133 0.0 3.0 0.00 0.00 0.00 74 1013.5
20260504035104 52 133 0.0 2.0 0.00 0.00 0.00 77 1013.5
20260504035003 52 133 0.0 2.0 0.00 0.00 0.00 76 1013.5
20260504034903 52 133 0.0 1.0 0.00 0.00 0.00 76 1013.6
20260504034803 52 133 0.0 1.0 0.00 0.00 0.00 75 1013.6
20260504034704 52 133 0.0 1.0 0.00 0.00 0.00 76 1013.6
20260504034603 52 133 0.0 1.0 0.00 0.00 0.00 76 1013.7
20260504034504 52 0 0.0 0.0 0.00 0.00 0.00 77 1013.7
20260504034403 52 0 0.0 0.0 0.00 0.00 0.00 76 1013.8
20260504034304 52 0 0.0 0.0 0.00 0.00 0.00 76 1013.8
20260504034203 51 0 0.0 0.0 0.00 0.00 0.00 76 1013.8
20260504034104 51 0 0.0 0.0 0.00 0.00 0.00 76 1013.8
20260504034003 51 0 0.0 0.0 0.00 0.00 0.00 77 1013.8
20260504033803 51 0 0.0 0.0 0.00 0.00 0.00 77 1013.9
20260504033704 51 0 0.0 0.0 0.00 0.00 0.00 77 1013.9
20260504033603 51 0 0.0 0.0 0.00 0.00 0.00 78 1013.9
20260504033518 51 133 0.0 1.0 0.00 0.00 0.00 78 1013.9
20260504033503 51 133 0.0 1.0 0.00 0.00 0.00 76 1013.9
20260504033403 51 133 0.0 1.0 0.00 0.00 0.00 77 1013.9
20260504033204 51 133 0.0 1.0 0.00 0.00 0.00 78 1013.9
20260504033104 51 133 0.0 1.0 0.00 0.00 0.00 78 1014.0
20260504033003 51 133 0.0 1.0 0.00 0.00 0.00 79 1014.0
20260504032803 51 133 0.0 1.0 0.00 0.00 0.00 79 1014.1
20260504032703 51 133 0.0 1.0 0.00 0.00 0.00 78 1014.1
20260504032603 50 133 0.0 1.0 0.00 0.00 0.00 78 1014.0
20260504032517 51 133 0.0 1.0 0.00 0.00 0.00 78 1014.0
20260504032504 51 133 0.0 1.0 0.00 0.00 0.00 78 1014.1
20260504032403 51 133 0.0 1.0 0.00 0.00 0.00 78 1014.1
20260504032317 51 133 0.0 1.0 0.00 0.00 0.00 78 1014.1
20260504032204 51 133 0.0 1.0 0.00 0.00 0.00 78 1014.1
20260504032004 51 0 0.0 0.0 0.00 0.00 0.00 79 1014.2
20260504031904 51 0 0.0 0.0 0.00 0.00 0.00 78 1014.2
20260504031803 51 0 0.0 0.0 0.00 0.00 0.00 78 1014.2
20260504031603 51 0 0.0 0.0 0.00 0.00 0.00 76 1014.3
20260504031504 51 0 0.0 0.0 0.00 0.00 0.00 76 1014.3
20260504031303 50 0 0.0 0.0 0.00 0.00 0.00 77 1014.3
20260504031203 50 0 0.0 0.0 0.00 0.00 0.00 77 1014.3
20260504031104 50 0 0.0 0.0 0.00 0.00 0.00 75 1014.4
20260504031003 50 0 0.0 0.0 0.00 0.00 0.00 75 1014.4
20260504030904 50 0 0.0 0.0 0.00 0.00 0.00 76 1014.4
20260504030603 50 0 0.0 0.0 0.00 0.00 0.00 77 1014.4
20260504030504 50 0 0.0 0.0 0.00 0.00 0.00 77 1014.4
20260504030403 50 0 0.0 0.0 0.00 0.00 0.00 77 1014.4
20260504030304 50 0 0.0 0.0 0.00 0.00 0.00 77 1014.4
20260504030203 50 0 0.0 0.0 0.00 0.00 0.00 77 1014.4
20260504030118 50 0 0.0 0.0 0.00 0.00 0.00 77 1014.4
20260504030104 51 0 0.0 0.0 0.00 0.00 0.00 77 1014.4
20260504030018 51 0 0.0 0.0 0.00 0.00 0.00 77 1014.5
20260504030003 51 0 0.0 0.0 0.00 0.00 0.00 76 1014.5
20260504025703 51 0 0.0 0.0 0.00 0.00 0.00 74 1014.4
20260504025603 51 0 0.0 0.0 0.00 0.00 0.00 74 1014.4
20260504025503 51 0 0.0 0.0 0.00 0.00 0.00 74 1014.4
20260504025403 51 0 0.0 0.0 0.00 0.00 0.00 74 1014.4
20260504025319 51 0 0.0 0.0 0.00 0.00 0.00 74 1014.4
20260504025203 51 0 0.0 0.0 0.00 0.00 0.00 74 1014.4
20260504024904 51 0 0.0 0.0 0.00 0.00 0.00 75 1014.4
20260504024804 51 0 0.0 0.0 0.00 0.00 0.00 74 1014.4
20260504024703 51 0 0.0 0.0 0.00 0.00 0.00 74 1014.4
20260504024604 51 0 0.0 0.0 0.00 0.00 0.00 74 1014.4
20260504024403 51 0 0.0 0.0 0.00 0.00 0.00 74 1014.3
20260504024304 51 0 0.0 0.0 0.00 0.00 0.00 73 1014.3
20260504024219 51 0 0.0 0.0 0.00 0.00 0.00 73 1014.3
20260504024203 51 0 0.0 0.0 0.00 0.00 0.00 74 1014.3
20260504024103 51 133 0.0 1.0 0.00 0.00 0.00 73 1014.3
20260504023903 51 133 0.0 1.0 0.00 0.00 0.00 72 1014.3
20260504023803 51 133 0.0 1.0 0.00 0.00 0.00 73 1014.3
20260504023704 51 133 0.0 1.0 0.00 0.00 0.00 72 1014.4
20260504023604 52 133 0.0 1.0 0.00 0.00 0.00 73 1014.4
20260504023503 52 133 0.0 1.0 0.00 0.00 0.00 72 1014.4
20260504023303 52 133 0.0 1.0 0.00 0.00 0.00 72 1014.4
20260504023203 52 133 0.0 1.0 0.00 0.00 0.00 72 1014.3
20260504023103 52 133 0.0 1.0 0.00 0.00 0.00 72 1014.3
20260504023004 52 133 0.0 1.0 0.00 0.00 0.00 72 1014.3
20260504022903 52 133 0.0 1.0 0.00 0.00 0.00 72 1014.3
20260504022803 52 133 0.0 1.0 0.00 0.00 0.00 73 1014.3
20260504022704 52 133 0.0 1.0 0.00 0.00 0.00 73 1014.3
20260504022604 52 133 0.0 1.0 0.00 0.00 0.00 72 1014.3
20260504022418 52 133 0.0 1.0 0.00 0.00 0.00 71 1014.2
20260504022304 52 133 0.0 1.0 0.00 0.00 0.00 70 1014.2
20260504022103 52 133 0.0 1.0 0.00 0.00 0.00 70 1014.2
20260504022003 52 133 0.0 1.0 0.00 0.00 0.00 70 1014.2
20260504021904 52 133 0.0 1.0 0.00 0.00 0.00 70 1014.1
20260504021804 52 133 0.0 1.0 0.00 0.00 0.00 70 1014.1
20260504021709 52 133 0.0 1.0 0.00 0.00 0.00 70 1014.1
20260504021603 52 133 0.0 1.0 0.00 0.00 0.00 69 1014.1
20260504021304 53 133 0.0 1.0 0.00 0.00 0.00 68 1014.0
20260504021203 53 133 0.0 1.0 0.00 0.00 0.00 68 1014.0
20260504021104 53 133 0.0 1.0 0.00 0.00 0.00 69 1014.0
20260504021004 53 133 0.0 1.0 0.00 0.00 0.00 69 1014.0
20260504020904 53 133 0.0 1.0 0.00 0.00 0.00 69 1014.0
20260504020703 53 133 0.0 1.0 0.00 0.00 0.00 70 1014.0
20260504020603 53 133 0.0 1.0 0.00 0.00 0.00 70 1013.9
20260504020404 54 0 0.0 0.0 0.00 0.00 0.00 73 1013.9
20260504020303 54 0 0.0 0.0 0.00 0.00 0.00 72 1013.8
20260504020204 54 0 0.0 0.0 0.00 0.00 0.00 70 1013.8
20260504020104 54 0 0.0 0.0 0.00 0.00 0.00 67 1013.8
20260504020003 54 0 0.0 0.0 0.00 0.00 0.00 67 1013.8
20260504015903 54 0 0.0 0.0 0.00 0.00 0.00 66 1013.8
20260504015803 54 0 0.0 0.0 0.00 0.00 0.00 66 1013.7
20260504015703 54 0 0.0 0.0 0.00 0.00 0.00 65 1013.7
20260504015604 54 0 0.0 0.0 0.00 0.00 0.00 64 1013.6
20260504015504 54 0 0.0 0.0 0.00 0.00 0.00 65 1013.6
20260504015403 54 0 0.0 0.0 0.00 0.00 0.00 65 1013.6
20260504015304 55 0 0.0 0.0 0.00 0.00 0.00 64 1013.6
20260504015204 55 0 0.0 0.0 0.00 0.00 0.00 65 1013.6
20260504015103 55 0 0.0 0.0 0.00 0.00 0.00 67 1013.4
20260504015018 55 0 0.0 0.0 0.00 0.00 0.00 67 1013.5
20260504015003 55 0 0.0 0.0 0.00 0.00 0.00 63 1013.5
20260504014903 55 0 0.0 0.0 0.00 0.00 0.00 63 1013.5
20260504014718 55 0 0.0 0.0 0.00 0.00 0.00 63 1013.5
20260504014704 55 0 0.0 0.0 0.00 0.00 0.00 63 1013.4
20260504014603 55 0 0.0 0.0 0.00 0.00 0.00 63 1013.4
20260504014303 56 0 0.0 0.0 0.00 0.00 0.00 61 1013.4
20260504014204 56 0 0.0 0.0 0.00 0.00 0.00 61 1013.4
20260504014103 56 0 0.0 0.0 0.00 0.00 0.00 61 1013.4
20260504014003 56 0 0.0 0.0 0.00 0.00 0.00 61 1013.5
20260504013916 56 133 0.0 1.0 0.00 0.00 0.00 61 1013.5
20260504013804 56 133 0.0 2.0 0.00 0.00 0.00 61 1013.4
20260504013717 56 133 0.0 2.0 0.00 0.00 0.00 60 1013.5
20260504013603 56 133 0.0 2.0 0.00 0.00 0.00 61 1013.5
20260504013404 56 133 0.0 2.0 0.00 0.00 0.00 61 1013.4
20260504013304 56 133 0.0 2.0 0.00 0.00 0.00 61 1013.4
20260504013203 56 133 0.0 2.0 0.00 0.00 0.00 60 1013.4
20260504013103 56 133 0.0 2.0 0.00 0.00 0.00 60 1013.4
20260504013003 56 133 0.0 2.0 0.00 0.00 0.00 61 1013.4
20260504012903 56 133 0.0 2.0 0.00 0.00 0.00 61 1013.4
20260504012803 56 133 0.0 1.0 0.00 0.00 0.00 61 1013.4
20260504012718 56 133 0.0 1.0 0.00 0.00 0.00 62 1013.4
20260504012404 56 0 0.0 0.0 0.00 0.00 0.00 62 1013.4
20260504012304 56 0 0.0 0.0 0.00 0.00 0.00 62 1013.4
20260504012103 56 0 0.0 0.0 0.00 0.00 0.00 63 1013.3
20260504012004 56 0 0.0 0.0 0.00 0.00 0.00 62 1013.3
20260504011903 56 0 0.0 0.0 0.00 0.00 0.00 62 1013.3
20260504011804 56 0 0.0 0.0 0.00 0.00 0.00 63 1013.3
20260504011703 56 0 0.0 0.0 0.00 0.00 0.00 63 1013.3
20260504011603 56 0 0.0 0.0 0.00 0.00 0.00 63 1013.3
20260504011503 56 0 0.0 0.0 0.00 0.00 0.00 63 1013.3
20260504011419 56 0 0.0 0.0 0.00 0.00 0.00 63 1013.3
20260504011404 57 0 0.0 0.0 0.00 0.00 0.00 63 1013.3
20260504011303 56 0 0.0 0.0 0.00 0.00 0.00 63 1013.3
20260504011103 56 0 0.0 0.0 0.00 0.00 0.00 61 1013.2
20260504011003 56 0 0.0 0.0 0.00 0.00 0.00 60 1013.2
20260504010904 56 0 0.0 0.0 0.00 0.00 0.00 61 1013.2
20260504010803 56 0 0.0 0.0 0.00 0.00 0.00 62 1013.2
20260504010704 56 0 0.0 0.0 0.00 0.00 0.00 62 1013.2
20260504010604 56 0 0.0 0.0 0.00 0.00 0.00 63 1013.2
20260504010403 57 0 0.0 0.0 0.00 0.00 0.00 63 1013.2
20260504010303 57 0 0.0 0.0 0.00 0.00 0.00 64 1013.2
20260504010203 57 0 0.0 0.0 0.00 0.00 0.00 62 1013.3
20260504010003 57 0 0.0 0.0 0.00 0.00 0.00 60 1013.2
20260504005903 57 0 0.0 0.0 0.00 0.00 0.00 61 1013.3
20260504005803 57 0 0.0 0.0 0.00 0.00 0.00 60 1013.3
20260504005704 57 0 0.0 0.0 0.00 0.00 0.00 60 1013.3
20260504005603 57 0 0.0 0.0 0.00 0.00 0.00 60 1013.3
20260504005504 57 0 0.0 0.0 0.00 0.00 0.00 59 1013.3
20260504005304 57 0 0.0 0.0 0.00 0.00 0.00 58 1013.3
20260504005204 57 0 0.0 0.0 0.00 0.00 0.00 58 1013.3
20260504005119 57 0 0.0 0.0 0.00 0.00 0.00 58 1013.4
20260504005004 57 0 0.0 0.0 0.00 0.00 0.00 59 1013.4
20260504004918 58 0 0.0 0.0 0.00 0.00 0.00 59 1013.4
20260504004603 58 0 0.0 0.0 0.00 0.00 0.00 63 1013.4
20260504004503 58 0 0.0 0.0 0.00 0.00 0.00 63 1013.4
20260504004403 58 0 0.0 0.0 0.00 0.00 0.00 64 1013.4
20260504004304 58 0 0.0 0.0 0.00 0.00 0.00 63 1013.4
20260504004203 58 0 0.0 0.0 0.00 0.00 0.00 63 1013.4
20260504004103 58 0 0.0 0.0 0.00 0.00 0.00 62 1013.4
20260504003903 58 0 0.0 0.0 0.00 0.00 0.00 62 1013.4
20260504003804 58 0 0.0 0.0 0.00 0.00 0.00 62 1013.3
20260504003703 58 0 0.0 0.0 0.00 0.00 0.00 62 1013.3
20260504003603 58 0 0.0 0.0 0.00 0.00 0.00 61 1013.3
20260504003503 58 0 0.0 0.0 0.00 0.00 0.00 61 1013.4
20260504003403 58 0 0.0 0.0 0.00 0.00 0.00 60 1013.4
20260504003303 58 0 0.0 0.0 0.00 0.00 0.00 60 1013.4
20260504003203 58 0 0.0 0.0 0.00 0.00 0.00 60 1013.4
20260504003103 58 0 0.0 0.0 0.00 0.00 0.00 62 1013.3
20260504003003 59 0 0.0 0.0 0.00 0.00 0.00 61 1013.4
20260504002904 59 0 0.0 0.0 0.00 0.00 0.00 61 1013.4
20260504002804 59 0 0.0 0.0 0.00 0.00 0.00 58 1013.3
20260504002703 59 0 0.0 0.0 0.00 0.00 0.00 60 1013.3
20260504002603 59 0 0.0 0.0 0.00 0.00 0.00 58 1013.3
20260504002503 59 0 0.0 0.0 0.00 0.00 0.00 62 1013.4
20260504002403 59 0 0.0 0.0 0.00 0.00 0.00 61 1013.4
20260504002203 59 0 0.0 0.0 0.00 0.00 0.00 59 1013.4
20260504002104 59 0 0.0 0.0 0.00 0.00 0.00 58 1013.4
20260504002003 59 0 0.0 0.0 0.00 0.00 0.00 62 1013.4
20260504001903 59 0 0.0 0.0 0.00 0.00 0.00 61 1013.4
20260504001803 60 0 0.0 0.0 0.00 0.00 0.00 59 1013.4
20260504001704 60 0 0.0 0.0 0.00 0.00 0.00 57 1013.4
20260504001603 60 0 0.0 0.0 0.00 0.00 0.00 57 1013.4
20260504001504 60 0 0.0 0.0 0.00 0.00 0.00 57 1013.5
20260504001403 60 0 0.0 0.0 0.00 0.00 0.00 57 1013.5
20260504001303 60 0 0.0 0.0 0.00 0.00 0.00 55 1013.5
20260504001204 60 0 0.0 0.0 0.00 0.00 0.00 54 1013.5
20260504001004 60 0 0.0 0.0 0.00 0.00 0.00 55 1013.6
20260504000903 60 0 0.0 0.0 0.00 0.00 0.00 56 1013.6
20260504000803 60 0 0.0 0.0 0.00 0.00 0.00 54 1013.6
20260504000603 61 0 0.0 0.0 0.00 0.00 0.00 54 1013.6
20260504000504 61 0 0.0 0.0 0.00 0.00 0.00 54 1013.5
20260504000403 61 0 0.0 0.0 0.00 0.00 0.00 54 1013.5
20260504000304 61 0 0.0 0.0 0.00 0.00 0.00 55 1013.5
20260504000204 61 0 0.0 0.0 0.00 0.00 0.00 53 1013.6
20260504000004 61 330 0.0 1.0 0.00 0.00 0.00 53 1013.6
20260503235903 61 330 0.0 1.0 0.00 0.00 0.00 53 1013.6
20260503235803 61 330 0.0 1.0 0.00 0.00 0.00 53 1013.6
20260503235703 61 330 0.0 1.0 0.00 0.00 0.00 54 1013.6
20260503235603 62 330 0.0 1.0 0.00 0.00 0.00 53 1013.6
20260503235504 62 330 0.0 1.0 0.00 0.00 0.00 53 1013.7
20260503235404 62 330 0.0 1.0 0.00 0.00 0.00 55 1013.7
20260503235304 62 330 0.0 1.0 0.00 0.00 0.00 54 1013.7
20260503235203 62 330 0.0 1.0 0.00 0.00 0.00 54 1013.7
20260503235103 62 330 0.0 1.0 0.00 0.00 0.00 54 1013.8
20260503235004 62 330 0.0 1.0 0.00 0.00 0.00 55 1013.8
20260503234903 62 330 0.0 1.0 0.00 0.00 0.00 56 1013.8
20260503234803 62 330 0.0 1.0 0.00 0.00 0.00 55 1013.8